#timestamp,LO_Frequency,Hit 
1500602415.5,286047134.2,N
1500602435.3,286047138.3,N
1500602455.1,286047137.3,N
1500602475.9,286047138.7,N
1500602495.7,286047137.5,N
1500602515.5,286047137.7,N
1500602535.4,286047140.2,N
1500602555.2,286047142.0,N
1500602575.0,286047138.2,N
1500602575.9,286047138.2,N
1500602595.8,286047137.3,N
1500602615.6,286047137.5,N
1500602635.4,286047139.1,N
1500602655.3,286047139.0,N
1500602675.1,286047143.4,N
1500602695.8,286047139.0,N
1500602715.7,286047140.5,N
1500602735.5,286047141.1,N
1500602755.3,286047137.3,N
1500602775.2,286047140.1,N
1500602795.9,286047137.6,N
1500602815.7,286047140.4,N
1500602835.6,286047137.9,N
1500602855.4,286047138.2,N
1500602875.2,286047137.8,N
1500602895.1,286047137.5,N
1500602896.0,286047137.5,N
1500602915.8,286047135.9,N
1500602935.6,286047136.4,N
1500602955.5,286047137.5,N
1500602975.3,286047139.6,N
1500602995.1,286047138.2,N
1500603015.9,286047137.3,N
1500603035.7,286047139.7,N
1500603055.5,286047140.4,N
1500603075.3,286047139.8,N
1500603095.2,286047139.8,N
1500603115.0,286047138.6,N
1500603115.9,286047138.6,N
1500603135.7,286047139.9,N
1500603155.6,286047140.2,N
1500603175.4,286047143.5,N
1500603195.2,286047141.2,N
1500603215.1,286047141.6,N
1500603216.0,286047141.6,N
1500603235.8,286047139.3,N
1500603255.6,286047139.4,N
1500603275.5,286047138.9,N
1500603295.3,286047141.9,N
1500603315.1,286047141.5,N
1500603335.9,286047140.4,N
1500603355.7,286047141.3,N
1500603375.5,286047143.5,N
1500603395.4,286047139.4,N
1500603415.2,286047140.5,N
1500603435.1,286047143.4,N
1500603436.0,286047143.4,N
1500603455.8,286047142.1,N
1500603475.6,286047146.0,N
1500603495.5,286047146.8,N
1500603515.3,286047146.5,N
1500603535.1,286047145.4,N
1500603555.9,286047148.1,N
1500603575.7,286047142.1,N
1500603595.5,286047141.4,N
1500603615.4,286047143.2,N
1500603635.2,286047144.9,N
1500603655.0,286047144.3,N
1500603655.9,286047144.3,N
1500603675.8,286047144.6,N
1500603695.6,286047144.5,N
1500603715.4,286047144.1,N
1500603735.3,286047144.2,N
1500603755.1,286047144.5,N
1500603756.0,286047144.5,N
1500603775.8,286047143.9,N
1500603795.7,286047144.6,N
1500603815.5,286047146.2,N
1500603835.3,286047145.7,N
1500603855.2,286047147.8,N
1500603875.9,286047147.6,N
1500603895.7,286047147.8,N
1500603915.6,286047145.5,N
1500603935.4,286047147.3,N
1500603955.2,286047149.1,N
1500603975.1,286047149.0,N
1500603976.0,286047149.0,N
1500603995.8,286047148.9,N
1500604015.6,286047148.9,N
1500604035.4,286047147.4,N
1500604055.3,286047147.2,N
1500604075.1,286047149.7,N
1500604095.9,286047151.5,N
1500604115.7,286047147.3,N
1500604135.5,286047147.6,N
1500604155.3,286047147.4,N
1500604175.2,286047149.4,N
1500604195.0,286047150.0,N
1500604195.9,286047150.0,N
1500604215.7,286047147.6,N
1500604235.6,286047147.4,N
1500604255.4,286047148.4,N
1500604275.2,286047148.0,N
1500604295.1,286047146.8,N
1500604296.0,286047146.8,N
1500604315.8,286047145.8,N
1500604335.6,286047147.5,N
1500604355.5,286047149.3,N
1500604375.3,286047149.1,N
1500604395.1,286047149.2,N
1500604415.9,286047149.8,N
1500604435.7,286047151.5,N
1500604455.5,286047150.4,N
1500604475.4,286047148.9,N
1500604495.2,286047150.5,N
1500604515.0,286047150.1,N
1500604515.9,286047150.1,N
1500604535.8,286047152.3,N
1500604555.6,286047150.9,N
1500604575.4,286047152.3,N
1500604595.3,286047152.6,N
1500604615.1,286047153.6,N
1500604616.0,286047153.6,N
1500604635.8,286047154.7,N
1500604655.7,286047154.6,N
1500604675.5,286047156.0,N
1500604695.3,286047155.7,N
1500604715.1,286047153.4,N
1500604735.9,286047153.3,N
1500604755.7,286047156.4,N
1500604775.5,286047154.4,N
1500604795.4,286047156.3,N
1500604815.2,286047153.6,N
1500604835.0,286047153.7,N
1500604835.9,286047153.7,N
1500604855.8,286047153.4,N
1500604875.6,286047155.8,N
1500604895.4,286047156.0,N
1500604915.3,286047156.0,N
1500604935.1,286047156.2,N
1500604955.8,286047154.7,N
1500604975.7,286047154.3,N
1500604995.5,286047154.0,N
1500605015.3,286047153.7,N
1500605035.2,286047155.2,N
1500605055.9,286047158.0,N
1500605075.7,286047157.6,N
1500605095.6,286047155.4,N
1500605115.4,286047157.9,N
1500605135.2,286047154.0,N
1500605155.1,286047156.0,N
1500605156.0,286047156.0,N
1500605175.8,286047155.2,N
1500605195.6,286047156.1,N
1500605215.5,286047155.5,N
1500605235.3,286047154.0,N
1500605255.1,286047155.6,N
1500605275.9,286047156.8,N
1500605295.7,286047157.5,N
1500605315.5,286047157.5,N
1500605335.4,286047158.8,N
1500605355.2,286047159.8,N
1500605375.0,286047158.1,N
1500605375.9,286047158.1,N
1500605395.8,286047159.9,N
1500605415.6,286047158.5,N
1500605435.4,286047156.9,N
1500605455.2,286047156.5,N
1500605475.1,286047158.2,N
1500605476.0,286047158.2,N
1500605495.8,286047159.0,N
1500605515.6,286047159.0,N
1500605535.5,286047157.2,N
1500605555.3,286047156.6,N
1500605575.1,286047159.0,N
1500605595.9,286047159.1,N
1500605615.7,286047161.1,N
1500605635.5,286047158.9,N
1500605655.4,286047159.0,N
1500605675.2,286047159.2,N
1500605695.0,286047156.7,N
1500605695.9,286047156.7,N
1500605715.8,286047157.0,N
1500605735.6,286047156.5,N
1500605755.4,286047156.5,N
1500605775.3,286047159.4,N
1500605795.1,286047159.6,N
1500605796.0,286047159.6,N
1500605815.8,286047159.4,N
1500605835.7,286047159.2,N
1500605855.5,286047157.8,N
1500605875.3,286047155.1,N
1500605895.2,286047156.5,N
1500605915.9,286047158.7,N
1500605935.7,286047160.8,N
1500605955.5,286047162.2,N
1500605975.4,286047162.5,N
1500605995.2,286047160.1,N
